Radiation Dose at Monitoring Post of Fukushima Daini Nuclear Power Station
Date,Time,MP-1(microSv/h),MP-2(microSv/h),MP-3(microSv/h),MP-4(microSv/h),MP-5(microSv/h),MP-6(microSv/h),MP-7(microSv/h),Wind Direction,Wind Velocity(m/s),Rain
2015/05/07,00:00,0.559,0.339,0.598,0.554,0.480,0.259,0.233,south-southwest,6.0,No
2015/05/07,00:10,0.556,0.341,0.598,0.556,0.486,0.258,0.233,south-southwest,6.1,No
2015/05/07,00:20,0.559,0.338,0.598,0.553,0.481,0.258,0.234,southwest,5.4,No
2015/05/07,00:30,0.556,0.340,0.599,0.557,0.484,0.260,0.235,southwest,5.6,No
2015/05/07,00:40,0.557,0.338,0.599,0.554,0.479,0.259,0.235,southwest,2.8,No
2015/05/07,00:50,0.555,0.340,0.600,0.558,0.485,0.258,0.234,southwest,2.0,No
2015/05/07,01:00,0.559,0.338,0.601,0.553,0.481,0.258,0.234,southwest,3.9,No
2015/05/07,01:10,0.553,0.338,0.599,0.559,0.486,0.258,0.233,southwest,4.7,No
2015/05/07,01:20,0.558,0.340,0.598,0.553,0.482,0.258,0.234,southwest,4.7,No
2015/05/07,01:30,0.555,0.338,0.598,0.557,0.485,0.258,0.233,southwest,5.3,No
2015/05/07,01:40,0.557,0.340,0.600,0.553,0.481,0.260,0.233,southwest,4.0,No
2015/05/07,01:50,0.555,0.339,0.600,0.557,0.484,0.257,0.235,southwest,5.1,No
2015/05/07,02:00,0.559,0.340,0.603,0.554,0.481,0.258,0.233,southwest,3.8,No
2015/05/07,02:10,0.554,0.339,0.599,0.556,0.485,0.258,0.235,west,2.0,No
2015/05/07,02:20,0.559,0.341,0.600,0.554,0.482,0.260,0.234,south,2.2,No
2015/05/07,02:30,0.555,0.340,0.595,0.555,0.483,0.259,0.233,southwest,1.1,No
2015/05/07,02:40,0.560,0.340,0.600,0.556,0.481,0.260,0.233,south-southwest,1.2,No
2015/05/07,02:50,0.556,0.339,0.599,0.554,0.484,0.259,0.235,west-southwest,1.4,No
2015/05/07,03:00,0.562,0.340,0.601,0.558,0.484,0.258,0.234,southwest,1.2,No
2015/05/07,03:10,0.555,0.342,0.598,0.556,0.482,0.258,0.235,-,CALM,No
2015/05/07,03:20,0.560,0.340,0.601,0.557,0.486,0.258,0.234,north,0.6,No
2015/05/07,03:30,0.557,0.342,0.599,0.556,0.482,0.260,0.234,west-northwest,1.4,No
2015/05/07,03:40,0.558,0.339,0.601,0.559,0.485,0.259,0.235,north-northwest,2.2,No
2015/05/07,03:50,0.559,0.340,0.601,0.556,0.481,0.258,0.234,north,2.8,No
2015/05/07,04:00,0.556,0.340,0.599,0.554,0.484,0.259,0.234,north-northwest,2.8,No
2015/05/07,04:10,0.559,0.338,0.602,0.558,0.482,0.259,0.235,north,3.1,No
2015/05/07,04:20,0.555,0.341,0.598,0.555,0.481,0.259,0.234,north-northeast,2.5,No
2015/05/07,04:30,0.559,0.340,0.602,0.558,0.485,0.258,0.234,north,3.0,No
2015/05/07,04:40,0.556,0.339,0.600,0.554,0.483,0.259,0.235,north,3.4,No
2015/05/07,04:50,0.558,0.341,0.600,0.556,0.483,0.259,0.233,north,3.6,No
2015/05/07,05:00,0.556,0.340,0.602,0.558,0.483,0.260,0.235,north,2.8,No
2015/05/07,05:10,0.557,0.340,0.597,0.555,0.482,0.260,0.235,north,2.5,No
2015/05/07,05:20,0.559,0.341,0.601,0.558,0.484,0.259,0.234,north-northwest,2.5,No
2015/05/07,05:30,0.556,0.339,0.597,0.554,0.481,0.261,0.234,north-northwest,2.5,No
2015/05/07,05:40,0.558,0.340,0.601,0.558,0.485,0.259,0.234,north,2.1,No
2015/05/07,05:50,0.554,0.340,0.599,0.556,0.481,0.259,0.233,north-northwest,1.5,No
2015/05/07,06:00,0.560,0.341,0.598,0.554,0.482,0.258,0.235,north-northwest,1.2,No
2015/05/07,06:10,0.554,0.340,0.601,0.556,0.483,0.260,0.234,north-northeast,1.1,No
2015/05/07,06:20,0.560,0.339,0.598,0.552,0.482,0.259,0.235,north-northeast,1.4,No
2015/05/07,06:30,0.557,0.339,0.600,0.559,0.484,0.260,0.233,north-northeast,2.5,No
2015/05/07,06:40,0.559,0.340,0.597,0.554,0.482,0.259,0.234,north-northeast,3.3,No
2015/05/07,06:50,0.555,0.341,0.602,0.558,0.485,0.261,0.234,north-northeast,5.0,No
2015/05/07,07:00,0.556,0.339,0.598,0.553,0.480,0.259,0.234,north-northeast,5.0,No
2015/05/07,07:10,0.556,0.341,0.601,0.558,0.486,0.259,0.234,north-northeast,3.9,No
2015/05/07,07:20,0.558,0.338,0.597,0.554,0.480,0.260,0.235,north-northeast,2.2,No
2015/05/07,07:30,0.556,0.342,0.601,0.556,0.484,0.260,0.234,northeast,2.8,No
2015/05/07,07:40,0.558,0.337,0.594,0.553,0.481,0.259,0.235,north,1.5,No
2015/05/07,07:50,0.554,0.340,0.603,0.557,0.483,0.260,0.235,north-northeast,0.6,No
2015/05/07,08:00,0.560,0.339,0.595,0.552,0.482,0.259,0.235,north,1.2,No
2015/05/07,08:10,0.554,0.339,0.600,0.558,0.482,0.260,0.233,north,1.5,No
2015/05/07,08:20,0.559,0.338,0.597,0.555,0.485,0.258,0.234,north-northwest,0.9,No
2015/05/07,08:30,0.553,0.339,0.600,0.553,0.480,0.261,0.233,north,1.5,No
2015/05/07,08:40,0.558,0.340,0.600,0.557,0.481,0.260,0.235,north,1.1,No
2015/05/07,08:50,0.555,0.338,0.596,0.551,0.483,0.258,0.235,north-northeast,1.9,No
2015/05/07,09:00,0.552,0.338,0.600,0.553,0.477,0.260,0.234,north-northeast,1.9,No
2015/05/07,09:10,0.556,0.338,0.595,0.554,0.480,0.258,0.234,north-northeast,1.7,No
2015/05/07,09:20,0.552,0.335,0.603,0.551,0.483,0.257,0.233,northeast,0.9,No
2015/05/07,09:30,0.552,0.338,0.596,0.548,0.478,0.258,0.232,north-northeast,1.6,No
2015/05/07,09:40,0.558,0.339,0.598,0.550,0.477,0.257,0.235,-,CALM,No
2015/05/07,09:50,0.551,0.336,0.597,0.557,0.487,0.257,0.233,east,0.6,No
2015/05/07,10:00,0.551,0.338,0.593,0.553,0.483,0.257,0.232,northeast,0.5,No
2015/05/07,10:10,0.556,0.340,0.601,0.550,0.478,0.257,0.234,east-southeast,0.8,No
2015/05/07,10:20,0.554,0.338,0.598,0.549,0.476,0.258,0.232,-,CALM,No
2015/05/07,10:30,0.549,0.335,0.593,0.559,0.485,0.257,0.232,-,CALM,No
2015/05/07,10:40,0.556,0.337,0.591,0.554,0.485,0.259,0.234,east,1.1,No
2015/05/07,10:50,0.558,0.342,0.599,0.552,0.480,0.257,0.234,east-southeast,1.2,No
2015/05/07,11:00,0.555,0.338,0.598,0.547,0.477,0.258,0.231,south-southeast,0.8,No
2015/05/07,11:10,0.555,0.335,0.595,0.557,0.479,0.258,0.232,south-southeast,0.9,No
2015/05/07,11:20,0.558,0.341,0.594,0.558,0.485,0.258,0.234,south-southeast,1.3,No
2015/05/07,11:30,0.556,0.340,0.601,0.550,0.482,0.259,0.233,south-southeast,1.6,No
2015/05/07,11:40,0.555,0.338,0.599,0.552,0.478,0.258,0.232,south,1.5,No
2015/05/07,11:50,0.560,0.338,0.593,0.559,0.480,0.258,0.234,south,1.8,No
2015/05/07,12:00,0.556,0.341,0.601,0.555,0.485,0.258,0.233,south,2.1,No
2015/05/07,12:10,0.552,0.340,0.603,0.550,0.483,0.259,0.233,south,1.3,No
2015/05/07,12:20,0.560,0.337,0.595,0.550,0.481,0.258,0.235,south,1.2,No
2015/05/07,12:30,0.559,0.338,0.594,0.557,0.476,0.258,0.235,-,CALM,No
2015/05/07,12:40,0.551,0.341,0.598,0.554,0.475,0.257,0.233,east-northeast,1.0,No
2015/05/07,12:50,0.562,0.339,0.603,0.551,0.481,0.259,0.233,northeast,0.8,No
2015/05/07,13:00,0.557,0.338,0.598,0.553,0.487,0.259,0.235,east-northeast,1.4,No
2015/05/07,13:10,0.553,0.342,0.594,0.559,0.483,0.257,0.234,north-northeast,1.4,No
2015/05/07,13:20,0.562,0.338,0.600,0.554,0.479,0.258,0.233,northeast,1.2,No
2015/05/07,13:30,0.558,0.339,0.599,0.551,0.481,0.259,0.236,northeast,1.1,No
2015/05/07,13:40,0.557,0.340,0.596,0.559,0.486,0.257,0.232,east,0.9,No
2015/05/07,13:50,0.560,0.339,0.600,0.558,0.482,0.258,0.234,east-northeast,1.4,No
2015/05/07,14:00,0.557,0.341,0.606,0.551,0.477,0.258,0.235,east-northeast,1.4,No
2015/05/07,14:10,0.561,0.339,0.600,0.550,0.476,0.258,0.234,-,CALM,No
2015/05/07,14:20,0.557,0.340,0.595,0.556,0.476,0.258,0.233,-,CALM,No
2015/05/07,14:30,0.553,0.337,0.589,0.556,0.477,0.258,0.234,-,CALM,No
2015/05/07,14:40,0.556,0.340,0.596,0.550,0.479,0.259,0.233,south-southwest,0.7,No
2015/05/07,14:50,0.558,0.342,0.602,0.553,0.488,0.259,0.234,-,CALM,No
2015/05/07,15:00,0.553,0.338,0.599,0.558,0.486,0.258,0.235,south-southeast,0.7,No
2015/05/07,15:10,0.560,0.340,0.595,0.554,0.481,0.260,0.233,south,1.6,No
2015/05/07,15:20,0.559,0.340,0.603,0.555,0.481,0.259,0.234,south,2.2,No
2015/05/07,15:30,0.554,0.339,0.603,0.560,0.487,0.258,0.234,south,1.9,No
2015/05/07,15:40,0.560,0.339,0.594,0.554,0.483,0.259,0.233,south,2.9,No
2015/05/07,15:50,0.556,0.342,0.599,0.557,0.479,0.259,0.235,south-southeast,3.2,No
2015/05/07,16:00,0.553,0.338,0.602,0.557,0.478,0.257,0.234,south,3.9,No
2015/05/07,16:10,0.561,0.342,0.598,0.552,0.477,0.257,0.234,south,3.9,No
2015/05/07,16:20,0.556,0.340,0.606,0.559,0.484,0.259,0.235,south,4.3,No
2015/05/07,16:30,0.553,0.340,0.602,0.553,0.483,0.258,0.235,south-southeast,4.6,No
2015/05/07,16:40,0.561,0.340,0.599,0.558,0.480,0.259,0.234,south,2.8,No
2015/05/07,16:50,0.555,0.340,0.603,0.556,0.479,0.259,0.235,south,3.6,No
2015/05/07,17:00,0.555,0.341,0.596,0.555,0.488,0.259,0.235,south,2.0,No
2015/05/07,17:10,0.559,0.337,0.605,0.558,0.484,0.260,0.235,south,3.1,No
2015/05/07,17:20,0.555,0.341,0.602,0.554,0.479,0.258,0.235,southwest,0.5,No
2015/05/07,17:30,0.562,0.339,0.601,0.560,0.487,0.259,0.234,south,4.5,No
2015/05/07,17:40,0.556,0.341,0.603,0.554,0.486,0.259,0.236,south,6.4,No
2015/05/07,17:50,0.560,0.340,0.598,0.558,0.484,0.259,0.233,south,4.2,No
2015/05/07,18:00,0.559,0.341,0.604,0.554,0.488,0.261,0.235,south,4.7,No
2015/05/07,18:10,0.556,0.340,0.598,0.557,0.482,0.259,0.233,south,5.2,No
2015/05/07,18:20,0.560,0.339,0.603,0.556,0.488,0.259,0.236,south,5.6,No
2015/05/07,18:30,0.556,0.341,0.600,0.557,0.483,0.260,0.234,south,5.9,No
2015/05/07,18:40,0.561,0.340,0.601,0.557,0.487,0.259,0.234,south,5.2,No
2015/05/07,18:50,0.556,0.339,0.599,0.558,0.482,0.258,0.235,south-southwest,4.9,No
2015/05/07,19:00,0.560,0.339,0.601,0.555,0.486,0.260,0.234,south,4.9,No
2015/05/07,19:10,0.555,0.339,0.603,0.558,0.482,0.259,0.233,south-southwest,5.5,No
2015/05/07,19:20,0.560,0.341,0.604,0.555,0.486,0.259,0.234,south-southwest,5.8,No
2015/05/07,19:30,0.556,0.338,0.601,0.560,0.482,0.259,0.235,south-southwest,5.7,No
2015/05/07,19:40,0.561,0.341,0.604,0.554,0.486,0.258,0.235,south-southwest,5.0,No
2015/05/07,19:50,0.558,0.339,0.599,0.562,0.482,0.259,0.234,south-southwest,4.4,No
2015/05/07,20:00,0.559,0.340,0.605,0.557,0.487,0.259,0.235,south-southwest,4.8,No
2015/05/07,20:10,0.558,0.340,0.598,0.561,0.483,0.261,0.234,south-southwest,4.9,No
2015/05/07,20:20,0.559,0.340,0.604,0.557,0.487,0.259,0.235,south-southwest,5.1,No
2015/05/07,20:30,0.557,0.341,0.598,0.558,0.483,0.259,0.235,south-southwest,6.0,No
2015/05/07,20:40,0.558,0.340,0.605,0.556,0.485,0.260,0.234,south-southwest,5.5,No
2015/05/07,20:50,0.559,0.341,0.598,0.558,0.485,0.259,0.235,south-southwest,6.4,No
2015/05/07,21:00,0.557,0.341,0.602,0.557,0.482,0.260,0.235,southwest,5.3,No
2015/05/07,21:10,0.560,0.341,0.599,0.556,0.485,0.260,0.234,southwest,3.3,No
2015/05/07,21:20,0.555,0.341,0.602,0.560,0.480,0.259,0.235,west-southwest,2.8,No
2015/05/07,21:30,0.561,0.341,0.601,0.556,0.486,0.260,0.236,west-southwest,1.6,No
2015/05/07,21:40,0.556,0.342,0.602,0.561,0.480,0.259,0.234,southwest,1.4,No
2015/05/07,21:50,0.561,0.340,0.603,0.556,0.486,0.259,0.235,west-southwest,1.6,No
2015/05/07,22:00,0.558,0.341,0.599,0.560,0.483,0.260,0.234,west-southwest,2.5,No
2015/05/07,22:10,0.559,0.340,0.603,0.554,0.484,0.260,0.234,west-southwest,2.3,No
2015/05/07,22:20,0.557,0.340,0.600,0.557,0.483,0.259,0.234,southwest,1.8,No
2015/05/07,22:30,0.557,0.341,0.604,0.557,0.483,0.259,0.235,southwest,2.2,No
2015/05/07,22:40,0.558,0.339,0.599,0.555,0.484,0.260,0.235,south-southwest,2.1,No
2015/05/07,22:50,0.557,0.341,0.602,0.558,0.481,0.259,0.234,southwest,2.4,No
2015/05/07,23:00,0.561,0.341,0.601,0.554,0.486,0.260,0.234,south-southwest,2.1,No
2015/05/07,23:10,0.556,0.339,0.599,0.559,0.482,0.259,0.234,southwest,1.5,No
2015/05/07,23:20,0.560,0.341,0.604,0.555,0.485,0.260,0.235,southwest,1.0,No
2015/05/07,23:30,0.557,0.341,0.599,0.558,0.482,0.259,0.235,-,CALM,No
2015/05/07,23:40,0.557,0.341,0.605,0.557,0.484,0.260,0.235,south,0.7,No
2015/05/07,23:50,0.561,0.343,0.600,0.556,0.483,0.260,0.234,-,CALM,No
